This is the latest recevied weather packets stored in our database for station/object W8DRH-13. If no packets are shown the sender has not sent any weather packets the latest 10 day(s).
| Time | Temp. | Humidity | Pressure | Rain* | Wind** | Luminosity | Snow |
|---|---|---|---|---|---|---|---|
| 1777424864 | 15° C | 79% | 1012.1 hPa | 0 mm | - | 0 W/m² | - |
| 1777424559 | 15° C | 80% | 1011.9 hPa | 0 mm | - | 0 W/m² | - |
| 1777424255 | 15° C | 79% | 1012.1 hPa | 0 mm | - | 0 W/m² | - |
| 1777423952 | 15° C | 80% | 1011.8 hPa | 0 mm | - | 0 W/m² | - |
| 1777423649 | 15° C | 79% | 1011.7 hPa | 0 mm | - | 0 W/m² | - |
| 1777423344 | 15° C | 79% | 1011.4 hPa | 0 mm | - | 0 W/m² | - |
| 1777423039 | 15° C | 80% | 1011.1 hPa | 0 mm | - | 0 W/m² | - |
| 1777422730 | 15° C | 80% | 1010.9 hPa | 0 mm | - | 0 W/m² | - |
| 1777422430 | 15° C | 80% | 1010.9 hPa | 0 mm | - | 0 W/m² | - |
| 1777422126 | 15.56° C | 80% | 1011 hPa | 0 mm | - | 2 W/m² | - |
| 1777421825 | 15.56° C | 80% | 1011 hPa | 0 mm | - | 3 W/m² | - |
| 1777421521 | 15.56° C | 79% | 1011 hPa | 0 mm | - | 6 W/m² | - |
| 1777421217 | 15.56° C | 79% | 1011 hPa | 0 mm | - | 9 W/m² | - |
| 1777420913 | 15.56° C | 79% | 1010.6 hPa | 0 mm | - | 14 W/m² | - |
| 1777420609 | 16.11° C | 79% | 1010.6 hPa | 0 mm | - | 17 W/m² | - |
| 1777420306 | 16.11° C | 78% | 1010.5 hPa | 0 mm | - | 24 W/m² | - |
| 1777420001 | 16.11° C | 78% | 1010.5 hPa | 0 mm | - | 26 W/m² | - |
| 1777419698 | 16.67° C | 78% | 1010.5 hPa | 0 mm | - | 30 W/m² | - |
| 1777419396 | 16.67° C | 77% | 1010.7 hPa | 0 mm | - | 31 W/m² | - |
| 1777419090 | 16.67° C | 77% | 1010.6 hPa | 0 mm | - | 35 W/m² | - |
| 1777418789 | 17.22° C | 76% | 1010.9 hPa | 0 mm | - | 51 W/m² | - |
| 1777418487 | 17.78° C | 76% | 1011 hPa | 0 mm | - | 60 W/m² | - |
| 1777418182 | 17.78° C | 75% | 1011 hPa | 0 mm | - | 75 W/m² | - |
| 1777417878 | 17.78° C | 74% | 1010.8 hPa | 0 mm | - | 103 W/m² | - |
| 1777417575 | 17.78° C | 74% | 1010.6 hPa | 0 mm | - | 115 W/m² | - |
* Rain latest hour (hover to see other rain measurements)
** Current wind speed in m/s (hover to see current wind gust speed)